Date String (YYYY-MM-DD hh:mm:ss) UTC,Instrument flags,absolute air pressure of the measurement (hPa),sample flow rate (lpm),inlet stack bypass flow (lpm),air temperature of the measurement (°C),ambient temperature measured by the external sensor (°C),aerosol sample conditioner tube jacket temperature (°C),OPC LED temperature (°C),internal box temperature (°C),relative humidity of the measurement (%),span deviation,mass concentration of particles derived from Lorenz-Mie calculation of OPC scattering (μg/m³),mass concentration of particles derived from Lorenz-Mie calculation of OPC scattering (μg/m³),mass concentration of particles derived from Lorenz-Mie calculation of OPC scattering (μg/m³)
DateTimeUTC,F1_M11,P_M11,Q1_M11,Q2_M11,T1_M11,T2_M11,T3_M11,T4_M11,T5_M11,U1_M11,ZSPAN_M11,X0_M11,X2_M11,X1_M11
2023-08-23 23:00:00,SystemResetWarning,0832.8,5.00,000.00,027.5,026.0,000.0,035.7,029.4,28.2,0000.8,0018.88,0008.59,0007.40
2023-08-23 23:01:00,SystemResetWarning,0833.1,4.98,000.00,027.5,025.2,000.0,035.6,029.2,28.7,0000.4,0018.15,0008.51,0007.40
2023-08-23 23:02:00,SystemResetWarning,0833.3,5.00,000.00,027.4,024.1,000.0,035.6,028.9,27.7,0000.7,0017.96,0008.49,0007.39
2023-08-23 23:03:00,SystemResetWarning,0833.4,5.01,000.00,027.4,024.1,000.0,035.5,028.8,27.7,0000.9,0017.19,0008.48,0007.36
2023-08-23 23:04:00,SystemResetWarning,0833.3,5.01,000.00,027.3,024.5,000.0,035.6,028.9,27.5,0001.2,0017.06,0008.51,0007.36
2023-08-23 23:05:00,SystemResetWarning,0833.2,5.00,000.00,027.4,024.9,000.0,035.6,029.1,27.8,0001.4,0017.95,0008.48,0007.36
2023-08-23 23:06:00,SystemResetWarning,0833.1,5.00,000.00,027.4,025.4,000.0,035.6,029.2,27.7,0001.2,0018.38,0008.41,0007.36
2023-08-23 23:07:00,SystemResetWarning,0833.3,4.99,000.00,027.5,025.8,000.0,035.7,029.3,27.7,0001.1,0018.17,0008.40,0007.36
2023-08-23 23:08:00,SystemResetWarning,0833.0,4.99,000.00,027.5,025.8,000.0,035.7,029.3,27.4,0001.1,0017.97,0008.37,0007.34
2023-08-23 23:09:00,SystemResetWarning,0833.3,5.00,000.00,027.5,024.5,000.0,035.6,029.0,27.5,0001.2,0018.24,0008.35,0007.33
2023-08-23 23:10:00,SystemResetWarning,0833.3,5.01,000.00,027.4,024.0,000.0,035.5,028.8,27.7,0001.7,0018.88,0008.41,0007.32
2023-08-23 23:11:00,SystemResetWarning,0833.4,5.01,000.00,027.3,024.3,000.0,035.5,028.9,27.6,0001.9,0019.25,0008.43,0007.32
2023-08-23 23:12:00,SystemResetWarning,0833.2,4.99,000.00,027.3,024.7,000.0,035.6,029.0,28.0,0001.9,0018.70,0008.41,0007.32
2023-08-23 23:13:00,SystemResetWarning,0833.4,5.00,000.00,027.4,025.2,000.0,035.6,029.1,28.6,0001.8,0018.91,0008.41,0007.32
2023-08-23 23:14:00,SystemResetWarning,0833.0,5.00,000.00,027.4,025.6,000.0,035.7,029.3,28.2,0001.9,0019.38,0008.45,0007.32
2023-08-23 23:15:00,SystemResetWarning,0832.9,5.00,000.00,027.5,026.0,000.0,035.7,029.4,28.1,0002.0,0018.95,0008.47,0007.31
2023-08-23 23:16:00,SystemResetWarning,0833.0,4.99,000.00,027.5,025.9,000.0,035.7,029.3,28.3,0001.6,0018.29,0008.52,0007.31
2023-08-23 23:17:00,SystemResetWarning,0832.9,4.99,000.00,027.5,024.5,000.0,035.6,029.0,28.3,0001.6,0018.01,0008.58,0007.30
2023-08-23 23:18:00,SystemResetWarning,0832.9,5.01,000.00,027.4,023.9,000.0,035.5,028.9,28.5,0001.5,0018.33,0008.61,0007.29
2023-08-23 23:19:00,SystemResetWarning,0833.0,5.01,000.00,027.4,024.3,000.0,035.5,028.9,28.9,0001.7,0019.56,0008.69,0007.30
2023-08-23 23:20:00,SystemResetWarning,0833.1,5.00,000.00,027.3,024.7,000.0,035.6,029.0,29.2,0001.7,0019.77,0008.75,0007.32
2023-08-23 23:21:00,SystemResetWarning,0833.3,5.00,000.00,027.4,025.2,000.0,035.6,029.1,28.8,0001.0,0020.15,0008.78,0007.32
2023-08-23 23:22:00,SystemResetWarning,0833.2,5.00,000.00,027.4,025.6,000.0,035.7,029.3,29.0,0000.8,0020.93,0008.76,0007.32
2023-08-23 23:23:00,SystemResetWarning,0833.0,5.00,000.00,027.5,026.0,000.0,035.7,029.4,28.9,0001.2,0020.76,0008.79,0007.32
2023-08-23 23:24:00,SystemResetWarning,0833.0,4.99,000.00,027.6,025.9,000.0,035.7,029.4,29.0,0001.1,0021.64,0008.80,0007.34
2023-08-23 23:25:00,SystemResetWarning,0833.0,4.99,000.00,027.5,024.5,000.0,035.6,029.1,29.8,0000.8,0021.60,0008.73,0007.34
2023-08-23 23:26:00,SystemResetWarning,0833.6,5.00,000.00,027.4,024.0,000.0,035.5,028.9,30.9,0000.7,0022.07,0008.73,0007.35
2023-08-23 23:27:00,SystemResetWarning,0833.1,5.01,000.00,027.4,024.3,000.0,035.6,028.9,30.6,0001.1,0021.60,0008.72,0007.34
2023-08-23 23:28:00,SystemResetWarning,0833.0,5.00,000.00,027.4,024.7,000.0,035.6,029.0,29.2,0001.4,0021.45,0008.69,0007.35
2023-08-23 23:29:00,SystemResetWarning,0833.1,5.01,000.00,027.4,025.2,000.0,035.6,029.1,28.9,0001.7,0021.34,0008.67,0007.36
2023-08-23 23:30:00,SystemResetWarning,0833.1,5.00,000.00,027.5,025.6,000.0,035.7,029.3,29.5,0001.5,0020.86,0008.67,0007.36
2023-08-23 23:31:00,SystemResetWarning,0833.0,4.99,000.00,027.5,026.0,000.0,035.7,029.4,28.7,0001.6,0021.36,0008.64,0007.35
2023-08-23 23:32:00,SystemResetWarning,0832.9,4.98,000.00,027.5,025.1,000.0,035.6,029.2,28.4,0002.0,0021.26,0008.61,0007.34
2023-08-23 23:33:00,SystemResetWarning,0832.9,5.01,000.00,027.4,023.9,000.0,035.6,028.9,27.9,0002.0,0021.37,0008.65,0007.34
2023-08-23 23:34:00,SystemResetWarning,0833.0,5.01,000.00,027.4,024.1,000.0,035.5,028.9,27.9,0001.9,0021.72,0008.66,0007.35
2023-08-23 23:35:00,SystemResetWarning,0833.0,5.01,000.00,027.3,024.5,000.0,035.6,028.9,28.0,0002.1,0020.44,0008.64,0007.33
2023-08-23 23:36:00,SystemResetWarning,0833.1,5.00,000.00,027.4,024.9,000.0,035.6,029.0,28.1,0002.1,0020.46,0008.70,0007.36
2023-08-23 23:37:00,SystemResetWarning,0833.1,5.00,000.00,027.4,025.4,000.0,035.6,029.2,28.1,0002.0,0020.45,0008.72,0007.37
2023-08-23 23:38:00,SystemResetWarning,0833.1,5.00,000.00,027.5,025.8,000.0,035.7,029.3,27.7,0001.7,0020.89,0008.69,0007.37
2023-08-23 23:39:00,SystemResetWarning,0833.2,5.00,000.00,027.5,026.1,000.0,035.7,029.4,27.7,0001.5,0022.08,0008.66,0007.38
2023-08-23 23:40:00,SystemResetWarning,0833.2,4.99,000.00,027.5,025.0,000.0,035.7,029.2,28.1,0001.3,0021.62,0008.62,0007.38
2023-08-23 23:41:00,SystemResetWarning,0833.1,5.01,000.00,027.4,023.8,000.0,035.6,028.9,28.6,0001.1,0021.29,0008.59,0007.38
2023-08-23 23:42:00,SystemResetWarning,0833.1,5.01,000.00,027.4,023.9,000.0,035.5,028.8,28.5,0001.2,0020.68,0008.61,0007.40
2023-08-23 23:43:00,SystemResetWarning,0833.0,4.99,000.00,027.3,024.3,000.0,035.6,028.9,28.4,0001.6,0021.48,0008.63,0007.43
2023-08-23 23:44:00,SystemResetWarning,0833.3,4.99,000.00,027.3,024.8,000.0,035.6,029.0,28.6,0001.8,0020.06,0008.61,0007.45
2023-08-23 23:45:00,SystemResetWarning,0833.3,5.01,000.00,027.4,025.3,000.0,035.7,029.2,28.2,0001.7,0020.16,0008.65,0007.45
2023-08-23 23:46:00,SystemResetWarning,0833.1,5.01,000.00,027.4,025.7,000.0,035.7,029.3,27.4,0001.7,0020.55,0008.68,0007.47
2023-08-23 23:47:00,SystemResetWarning,0833.3,4.99,000.00,027.5,026.0,000.0,035.7,029.4,27.8,0001.9,0020.83,0008.68,0007.51
2023-08-23 23:48:00,SystemResetWarning,0833.0,4.98,000.00,027.5,025.0,000.0,035.6,029.1,27.4,0001.8,0020.85,0008.68,0007.51
2023-08-23 23:49:00,SystemResetWarning,0833.0,5.01,000.00,027.4,023.7,000.0,035.6,028.9,27.7,0002.3,0020.60,0008.68,0007.54
2023-08-23 23:50:00,SystemResetWarning,0833.0,5.02,000.00,027.3,023.8,000.0,035.5,028.8,27.7,0002.4,0019.81,0008.71,0007.56
2023-08-23 23:51:00,SystemResetWarning,0833.2,5.00,000.00,027.3,024.2,000.0,035.6,028.9,27.5,0002.7,0019.73,0008.77,0007.60
2023-08-23 23:52:00,SystemResetWarning,0833.0,4.99,000.00,027.3,024.7,000.0,035.6,029.0,27.7,0002.8,0020.64,0008.89,0007.63
2023-08-23 23:53:00,SystemResetWarning,0833.1,5.00,000.00,027.3,025.2,000.0,035.6,029.1,28.1,0002.8,0021.16,0008.88,0007.64
2023-08-23 23:54:00,SystemResetWarning,0833.1,5.00,000.00,027.4,025.6,000.0,035.7,029.2,27.5,0002.7,0019.75,0008.88,0007.64
2023-08-23 23:55:00,SystemResetWarning,0833.1,4.99,000.00,027.5,025.9,000.0,035.7,029.3,27.5,0002.6,0020.03,0008.84,0007.64
2023-08-23 23:56:00,SystemResetWarning,0833.1,4.99,000.00,027.5,024.9,000.0,035.6,029.1,27.3,0002.6,0019.70,0008.85,0007.66
2023-08-23 23:57:00,SystemResetWarning,0833.0,5.01,000.00,027.4,023.7,000.0,035.5,028.8,27.3,0002.5,0019.98,0008.89,0007.68
2023-08-23 23:58:00,SystemResetWarning,0833.0,5.01,000.00,027.3,023.8,000.0,035.5,028.7,27.8,0002.4,0020.30,0008.97,0007.69
2023-08-23 23:59:00,SystemResetWarning,0833.1,5.00,000.00,027.3,024.2,000.0,035.5,028.8,28.0,0002.2,0021.03,0008.94,0007.67
